BAW156 KJFK-EDDF

Flight info

Callsign BAW156
Flight time N/A
Altitude 37000
Route MERIT DCT HFD DCT PUT DCT TOPPS N557A NEEKO/M082F380 DCT 54N050W 55N040W 55N030W 54N020W DCT MALOT DCT GISTI/N0477F390 DCT ENJEX DCT ADHAV DCT AXNEF DCT ZIPWE DCT OZZIL DCT SAWPE Q63 CPT UL9 BIG L607 KONAN DCT KOK UL607 FERDI DCT REMBA DCT SPI T180 NIVNU T847 IMCOM IMCOM1D
Aircraft A339/H-SADE1E2E3GHIJ3J5M1P2RWXY/LB2D1

Departure

Time 2026-05-01 12:29
Airport John F. Kennedy International Airport (KJFK)

Arrival

Time N/A
Airport Frankfurt Main Airport (EDDF)
Time Latitude Longitude Altitude Speed Heading
2026-05-01 11:20 40.63902 -73.78041 26 ft 0 kts 260°
2026-05-01 12:14 40.63905 -73.78023 30 ft 3 kts 260°
2026-05-01 12:15 40.63908 -73.77996 30 ft 3 kts 254°
2026-05-01 12:15 40.63914 -73.77970 32 ft 3 kts 254°
2026-05-01 12:15 40.63922 -73.77942 32 ft 3 kts 187°
2026-05-01 12:15 40.63927 -73.77939 32 ft 0 kts 171°
2026-05-01 12:18 40.63916 -73.77937 25 ft 10 kts 171°
2026-05-01 12:19 40.63806 -73.77919 30 ft 20 kts 174°
2026-05-01 12:19 40.63655 -73.77896 29 ft 22 kts 173°
2026-05-01 12:19 40.63548 -73.77804 30 ft 16 kts 106°
2026-05-01 12:19 40.63535 -73.77706 26 ft 5 kts 76°
2026-05-01 12:20 40.63608 -73.77632 29 ft 15 kts 30°
2026-05-01 12:20 40.63714 -73.77546 27 ft 21 kts 31°
2026-05-01 12:20 40.63845 -73.77445 30 ft 24 kts 30°
2026-05-01 12:20 40.64004 -73.77319 26 ft 31 kts 31°
2026-05-01 12:21 40.64187 -73.77175 27 ft 30 kts 30°
2026-05-01 12:21 40.64364 -73.77037 26 ft 29 kts 31°
2026-05-01 12:21 40.64548 -73.76985 29 ft 26 kts
2026-05-01 12:21 40.64715 -73.77022 26 ft 24 kts 331°
2026-05-01 12:22 40.64812 -73.77176 27 ft 21 kts 301°
2026-05-01 12:22 40.64886 -73.77337 26 ft 20 kts 301°
2026-05-01 12:22 40.64945 -73.77470 29 ft 17 kts 301°
2026-05-01 12:22 40.65007 -73.77604 28 ft 18 kts 301°
2026-05-01 12:23 40.65073 -73.77748 30 ft 18 kts 301°
2026-05-01 12:23 40.65135 -73.77890 28 ft 18 kts 300°
2026-05-01 12:23 40.65202 -73.78036 27 ft 20 kts 301°
2026-05-01 12:23 40.65274 -73.78191 27 ft 19 kts 302°
2026-05-01 12:24 40.65340 -73.78338 27 ft 18 kts 299°
2026-05-01 12:24 40.65360 -73.78462 26 ft 7 kts 281°
2026-05-01 12:24 40.65405 -73.78530 26 ft 12 kts 314°
2026-05-01 12:24 40.65461 -73.78608 32 ft 12 kts 310°
2026-05-01 12:25 40.65504 -73.78701 29 ft 12 kts 299°
2026-05-01 12:25 40.65585 -73.78885 30 ft 12 kts 301°
2026-05-01 12:25 40.65625 -73.78970 31 ft 11 kts 301°
2026-05-01 12:26 40.65671 -73.79052 31 ft 11 kts 320°
2026-05-01 12:26 40.65684 -73.79057 30 ft 0 kts 347°
2026-05-01 12:27 40.65697 -73.79058 30 ft 4 kts 355°
2026-05-01 12:27 40.65753 -73.79004 27 ft 5 kts 75°
2026-05-01 12:28 40.65704 -73.78863 30 ft 0 kts 121°
2026-05-01 12:28 40.65702 -73.78858 30 ft 5 kts 121°
2026-05-01 12:29 40.65566 -73.78556 29 ft 80 kts 120°
2026-05-01 12:29 40.65146 -73.77631 28 ft 153 kts 120°
2026-05-01 12:29 40.63831 -73.74786 1088 ft 192 kts 120°
2026-05-01 12:30 40.62594 -73.72215 2304 ft 205 kts 118°
2026-05-01 12:30 40.62123 -73.70478 2979 ft 207 kts 91°
2026-05-01 12:30 40.62391 -73.68556 3376 ft 219 kts 60°
2026-05-01 12:31 40.63389 -73.66987 3684 ft 233 kts 34°
2026-05-01 12:31 40.64804 -73.65821 3976 ft 252 kts 25°
2026-05-01 12:31 40.66399 -73.64789 4581 ft 257 kts 22°
2026-05-01 12:31 40.68018 -73.63756 5197 ft 261 kts 23°
2026-05-01 12:32 40.69651 -73.62672 5850 ft 265 kts 23°
2026-05-01 12:32 40.72969 -73.60360 7095 ft 273 kts 24°
2026-05-01 12:32 40.74652 -73.59165 7712 ft 277 kts 24°
2026-05-01 12:33 40.76361 -73.57946 8354 ft 280 kts 23°
2026-05-01 12:33 40.78088 -73.56714 8960 ft 284 kts 23°
2026-05-01 12:33 40.79837 -73.55470 9583 ft 288 kts 22°
2026-05-01 12:33 40.81610 -73.54209 10160 ft 292 kts 22°
2026-05-01 12:34 40.83460 -73.52903 10363 ft 310 kts 22°
2026-05-01 12:34 40.85422 -73.51522 10537 ft 329 kts 22°
2026-05-01 12:34 40.87485 -73.50064 10812 ft 342 kts 23°
2026-05-01 12:34 40.89597 -73.48561 11294 ft 347 kts 23°
2026-05-01 12:35 40.91732 -73.47038 11821 ft 351 kts 23°
2026-05-01 12:35 40.93897 -73.45498 12328 ft 356 kts 23°
2026-05-01 12:35 40.96094 -73.43933 12834 ft 360 kts 23°
2026-05-01 12:35 40.98313 -73.42351 13346 ft 365 kts 23°
2026-05-01 12:36 41.00556 -73.40750 13861 ft 368 kts 23°
2026-05-01 12:36 41.02820 -73.39135 14343 ft 371 kts 23°
2026-05-01 12:36 41.05104 -73.37504 14843 ft 374 kts 23°
2026-05-01 12:36 41.07402 -73.35862 15327 ft 377 kts 23°
2026-05-01 12:37 41.09718 -73.34208 15812 ft 380 kts 23°
2026-05-01 12:37 41.12055 -73.32536 16299 ft 383 kts 23°
2026-05-01 12:37 41.14411 -73.30852 16806 ft 385 kts 23°
2026-05-01 12:37 41.16778 -73.29156 17287 ft 388 kts 23°
2026-05-01 12:38 41.19161 -73.27447 17771 ft 391 kts 23°
2026-05-01 12:38 41.21567 -73.25721 18246 ft 394 kts 23°
2026-05-01 12:38 41.23992 -73.23980 18676 ft 397 kts 23°
2026-05-01 12:38 41.26435 -73.22223 19103 ft 400 kts 23°
2026-05-01 12:39 41.28896 -73.20454 19525 ft 403 kts 23°
2026-05-01 12:39 41.31378 -73.18668 19948 ft 407 kts 23°
2026-05-01 12:39 41.33873 -73.16871 20360 ft 410 kts 23°
2026-05-01 12:39 41.36328 -73.14991 20744 ft 417 kts 30°
2026-05-01 12:40 41.38542 -73.12411 21186 ft 427 kts 44°
2026-05-01 12:40 41.40292 -73.09179 21594 ft 435 kts 58°
2026-05-01 12:40 41.41797 -73.05663 21992 ft 439 kts 58°
2026-05-01 12:40 41.43331 -73.02131 22431 ft 442 kts 57°
2026-05-01 12:41 41.44891 -72.98576 22863 ft 445 kts 57°
2026-05-01 12:41 41.46464 -72.95007 23278 ft 448 kts 57°
2026-05-01 12:41 41.48049 -72.91415 23667 ft 451 kts 57°
2026-05-01 12:41 41.49643 -72.87796 24047 ft 454 kts 57°
2026-05-01 12:42 41.51246 -72.84153 24419 ft 456 kts 57°
2026-05-01 12:42 41.52856 -72.80490 24807 ft 459 kts 57°
2026-05-01 12:42 41.54472 -72.76807 25166 ft 461 kts 57°
2026-05-01 12:42 41.56100 -72.73092 25522 ft 464 kts 57°
2026-05-01 12:43 41.57732 -72.69363 25878 ft 467 kts 57°
2026-05-01 12:43 41.59373 -72.65608 26222 ft 470 kts 57°
2026-05-01 12:43 41.61025 -72.61823 26569 ft 472 kts 57°
2026-05-01 12:43 41.62683 -72.58020 26922 ft 475 kts 57°
2026-05-01 12:44 41.64349 -72.54192 27270 ft 478 kts 58°
2026-05-01 12:44 41.66051 -72.50355 27606 ft 480 kts 57°
2026-05-01 12:44 41.69540 -72.42675 28258 ft 485 kts 56°
2026-05-01 12:45 41.73061 -72.34888 28899 ft 491 kts 57°
2026-05-01 12:45 41.74830 -72.30955 29212 ft 493 kts 57°
2026-05-01 12:45 41.76599 -72.27010 29528 ft 496 kts 57°
2026-05-01 12:46 41.78359 -72.23080 29842 ft 498 kts 57°
2026-05-01 12:46 41.80146 -72.19085 30135 ft 501 kts 57°
2026-05-01 12:46 41.81942 -72.15064 30406 ft 503 kts 57°
2026-05-01 12:46 41.83743 -72.11027 30687 ft 505 kts 57°
2026-05-01 12:47 41.85549 -72.06974 30967 ft 508 kts 58°
2026-05-01 12:47 41.87364 -72.02894 31219 ft 510 kts 58°
2026-05-01 12:47 41.89186 -71.98794 31501 ft 513 kts 58°
2026-05-01 12:47 41.91013 -71.94675 31773 ft 515 kts 58°
2026-05-01 12:48 41.92848 -71.90535 32032 ft 517 kts 58°
2026-05-01 12:48 41.94831 -71.86484 32244 ft 518 kts 51°
2026-05-01 12:48 41.97187 -71.82800 32486 ft 518 kts 43°
2026-05-01 12:48 41.99852 -71.79546 32690 ft 517 kts 36°
2026-05-01 12:49 42.02638 -71.76460 32857 ft 520 kts 37°
2026-05-01 12:49 42.05418 -71.73335 33041 ft 521 kts 37°
2026-05-01 12:49 42.08198 -71.70194 33184 ft 523 kts 37°
2026-05-01 12:49 42.10984 -71.67041 33324 ft 524 kts 38°
2026-05-01 12:50 42.13779 -71.63879 33480 ft 525 kts 38°
2026-05-01 12:50 42.16579 -71.60709 33670 ft 525 kts 38°
2026-05-01 12:50 42.19375 -71.57540 33839 ft 525 kts 38°
2026-05-01 12:50 42.22174 -71.54362 33999 ft 526 kts 38°
2026-05-01 12:51 42.24935 -71.51224 34186 ft 525 kts 38°
2026-05-01 12:51 42.27767 -71.48002 34353 ft 524 kts 38°
2026-05-01 12:51 42.33300 -71.41694 34680 ft 524 kts 38°
2026-05-01 12:52 42.36090 -71.38507 34844 ft 523 kts 38°
2026-05-01 12:52 42.41645 -71.32151 35177 ft 523 kts 38°
2026-05-01 12:52 42.44423 -71.28966 35324 ft 522 kts 38°
2026-05-01 12:53 42.49963 -71.22605 35632 ft 522 kts 39°
2026-05-01 12:53 42.52730 -71.19421 35796 ft 521 kts 39°
2026-05-01 12:53 42.55492 -71.16240 35943 ft 521 kts 39°
2026-05-01 12:54 42.58256 -71.13053 36092 ft 521 kts 39°
2026-05-01 12:54 42.63764 -71.06689 36401 ft 520 kts 39°
2026-05-01 12:54 42.66521 -71.03498 36556 ft 520 kts 39°
2026-05-01 12:55 42.72019 -70.97123 36843 ft 519 kts 39°
2026-05-01 12:55 42.74769 -70.93929 36907 ft 519 kts 39°
2026-05-01 12:56 42.80248 -70.87553 36898 ft 517 kts 39°
2026-05-01 12:56 42.85728 -70.81161 36873 ft 518 kts 40°
2026-05-01 12:57 42.91204 -70.74758 36872 ft 518 kts 40°
2026-05-01 12:57 42.99402 -70.65142 36862 ft 518 kts 40°
2026-05-01 12:58 43.04866 -70.58713 36862 ft 518 kts 40°
2026-05-01 12:59 43.13051 -70.49053 36872 ft 518 kts 40°
2026-05-01 12:59 43.21226 -70.39368 36871 ft 518 kts 40°
2026-05-01 13:00 43.29367 -70.29690 36866 ft 518 kts 40°
2026-05-01 13:01 43.37540 -70.19938 36878 ft 517 kts 41°
2026-05-01 13:02 43.45646 -70.10231 36870 ft 517 kts 41°
2026-05-01 13:07 44.03941 -69.39341 36830 ft 514 kts 43°
2026-05-01 13:08 44.10163 -69.31662 36826 ft 514 kts 43°
2026-05-01 13:08 44.14617 -69.26150 36829 ft 513 kts 43°
2026-05-01 13:09 44.19959 -69.19525 36826 ft 513 kts 43°
2026-05-01 13:09 44.25292 -69.12892 36822 ft 513 kts 43°
2026-05-01 13:10 44.30614 -69.06256 36817 ft 514 kts 43°
2026-05-01 13:10 44.35972 -68.99559 36811 ft 519 kts 43°
2026-05-01 13:11 44.41322 -68.92855 36810 ft 521 kts 43°
2026-05-01 13:11 44.46723 -68.86070 36813 ft 523 kts 43°
2026-05-01 13:12 44.52137 -68.79251 36810 ft 523 kts 44°
2026-05-01 13:12 44.57550 -68.72416 36811 ft 524 kts 44°
2026-05-01 13:13 44.62964 -68.65561 36811 ft 524 kts 44°
2026-05-01 13:13 44.68372 -68.58696 36810 ft 524 kts 44°
2026-05-01 13:14 44.73781 -68.51810 36779 ft 525 kts 44°
2026-05-01 13:14 44.79186 -68.44914 36769 ft 524 kts 44°
2026-05-01 13:15 44.84591 -68.37998 36754 ft 524 kts 44°
2026-05-01 13:15 44.89983 -68.31081 36750 ft 524 kts 44°
2026-05-01 13:16 44.95371 -68.24149 36746 ft 524 kts 44°
2026-05-01 13:16 45.00750 -68.17210 36741 ft 523 kts 45°
2026-05-01 13:17 45.11487 -68.03307 36733 ft 523 kts 45°
2026-05-01 13:18 45.19527 -67.92846 36730 ft 523 kts 45°
2026-05-01 13:18 45.24876 -67.85868 36727 ft 522 kts 45°
2026-05-01 13:19 45.30223 -67.78882 36727 ft 522 kts 45°
2026-05-01 13:20 45.38581 -67.68956 36711 ft 526 kts 31°
2026-05-01 13:20 45.45329 -67.65011 36715 ft 528 kts 20°
2026-05-01 13:21 45.55311 -67.58614 36706 ft 523 kts 40°
2026-05-01 13:21 45.57991 -67.55142 36700 ft 518 kts 51°
2026-05-01 13:21 45.60185 -67.51100 36704 ft 513 kts 59°
2026-05-01 13:22 45.64402 -67.42853 36738 ft 516 kts 53°
2026-05-01 13:22 45.69333 -67.35323 36735 ft 519 kts 48°
2026-05-01 13:23 45.74514 -67.28113 36737 ft 519 kts 47°
2026-05-01 13:23 45.79680 -67.20959 36737 ft 519 kts 47°
2026-05-01 13:24 45.84861 -67.13737 36736 ft 519 kts 47°
2026-05-01 13:25 45.92618 -67.02866 36735 ft 520 kts 48°
2026-05-01 13:25 45.97786 -66.95592 36740 ft 520 kts 48°
2026-05-01 13:26 46.02947 -66.88305 36742 ft 520 kts 48°
2026-05-01 13:26 46.08106 -66.80998 36740 ft 520 kts 48°
2026-05-01 13:27 46.13268 -66.73669 36741 ft 521 kts 48°
2026-05-01 13:27 46.21004 -66.62645 36746 ft 521 kts 48°
2026-05-01 13:28 46.28733 -66.51586 36746 ft 521 kts 49°
2026-05-01 13:29 46.39038 -66.36767 36773 ft 522 kts 49°
2026-05-01 13:31 46.54440 -66.14462 36771 ft 522 kts 49°
2026-05-01 13:32 46.67280 -65.95721 36773 ft 523 kts 49°
2026-05-01 13:33 46.80096 -65.76880 36785 ft 523 kts 49°
2026-05-01 13:34 46.90305 -65.61774 36793 ft 523 kts 49°
2026-05-01 13:35 46.97967 -65.50381 36805 ft 523 kts 49°
2026-05-01 13:36 47.05621 -65.38949 36810 ft 523 kts 50°
2026-05-01 13:36 47.13259 -65.27492 36812 ft 523 kts 50°
2026-05-01 13:37 47.18338 -65.19844 36809 ft 523 kts 50°
2026-05-01 13:37 47.23412 -65.12182 36813 ft 523 kts 49°
2026-05-01 13:38 47.30996 -65.00689 36824 ft 524 kts 49°
2026-05-01 13:39 47.36077 -64.92960 36821 ft 524 kts 49°
2026-05-01 13:39 47.41156 -64.85212 36828 ft 523 kts 49°
2026-05-01 13:40 47.46179 -64.77527 36824 ft 523 kts 49°
2026-05-01 13:40 47.51255 -64.69737 36827 ft 522 kts 49°
2026-05-01 13:41 47.56287 -64.61992 36839 ft 522 kts 49°
2026-05-01 13:41 47.61309 -64.54239 36845 ft 521 kts 49°
2026-05-01 13:42 47.66318 -64.46482 36853 ft 521 kts 49°
2026-05-01 13:42 47.71288 -64.38765 36860 ft 520 kts 49°
2026-05-01 13:43 47.76279 -64.30992 36870 ft 519 kts 49°
2026-05-01 13:43 47.81261 -64.23212 36875 ft 519 kts 49°
2026-05-01 13:44 47.86235 -64.15418 36881 ft 518 kts 50°
2026-05-01 13:44 47.91199 -64.07620 36886 ft 518 kts 50°
2026-05-01 13:45 47.96158 -63.99819 36888 ft 517 kts 50°
2026-05-01 13:45 48.01097 -63.92004 36899 ft 517 kts 50°
2026-05-01 13:46 48.06027 -63.84181 36900 ft 517 kts 50°
2026-05-01 13:46 48.10953 -63.76344 36914 ft 517 kts 50°
2026-05-01 13:47 48.15874 -63.68494 36936 ft 517 kts 50°
2026-05-01 13:47 48.20785 -63.60638 36947 ft 517 kts 50°
2026-05-01 13:48 48.25693 -63.52760 36929 ft 517 kts 50°
2026-05-01 13:48 48.29774 -63.46192 36947 ft 518 kts 50°
2026-05-01 13:49 48.34698 -63.38248 36936 ft 518 kts 50°
2026-05-01 13:49 48.39585 -63.30340 36950 ft 515 kts 50°
2026-05-01 13:50 48.44462 -63.22421 36954 ft 516 kts 50°
2026-05-01 13:50 48.49336 -63.14484 36966 ft 516 kts 50°
2026-05-01 13:51 48.54205 -63.06532 36979 ft 516 kts 50°
2026-05-01 13:51 48.59064 -62.98571 36990 ft 515 kts 50°
2026-05-01 13:52 48.63916 -62.90598 36996 ft 515 kts 50°
2026-05-01 13:52 48.68756 -62.82620 36998 ft 514 kts 50°
2026-05-01 13:53 48.73590 -62.74628 37008 ft 514 kts 50°
2026-05-01 13:53 48.80830 -62.62611 37019 ft 514 kts 50°
2026-05-01 13:54 48.85641 -62.54594 37028 ft 514 kts 50°
2026-05-01 13:54 48.90453 -62.46553 37043 ft 513 kts 50°
2026-05-01 13:55 48.95216 -62.38568 37053 ft 513 kts 50°
2026-05-01 13:55 49.00000 -62.30523 37061 ft 512 kts 50°
2026-05-01 13:56 49.04775 -62.22468 37064 ft 512 kts 50°
2026-05-01 13:56 49.09542 -62.14402 37074 ft 512 kts 50°
2026-05-01 13:57 49.14300 -62.06326 37077 ft 511 kts 50°
2026-05-01 13:57 49.19057 -61.98228 37088 ft 511 kts 50°
2026-05-01 13:58 49.23800 -61.90127 37098 ft 511 kts 50°
2026-05-01 13:58 49.28534 -61.82015 37094 ft 510 kts 50°
2026-05-01 13:59 49.33255 -61.73903 37096 ft 510 kts 50°
2026-05-01 13:59 49.37967 -61.65779 37100 ft 509 kts 50°
2026-05-01 14:00 49.42669 -61.57649 37104 ft 508 kts 50°
2026-05-01 14:00 49.47357 -61.49516 37103 ft 507 kts 50°
2026-05-01 14:01 49.52025 -61.41393 37113 ft 507 kts 50°
2026-05-01 14:01 49.56663 -61.33298 37115 ft 506 kts 50°
2026-05-01 14:02 49.61313 -61.25156 37120 ft 506 kts 50°
2026-05-01 14:02 49.65953 -61.17005 37126 ft 505 kts 50°
2026-05-01 14:03 49.70587 -61.08840 37133 ft 505 kts 50°
2026-05-01 14:03 49.75206 -61.00675 37131 ft 504 kts 50°
2026-05-01 14:04 49.79818 -60.92497 37139 ft 504 kts 50°
2026-05-01 14:04 49.84425 -60.84304 37147 ft 504 kts 50°
2026-05-01 14:05 49.89017 -60.76109 37152 ft 503 kts 50°
2026-05-01 14:05 49.93604 -60.67898 37158 ft 503 kts 50°
2026-05-01 14:06 49.98179 -60.59684 37181 ft 502 kts 51°
2026-05-01 14:06 50.02747 -60.51454 37161 ft 502 kts 51°
2026-05-01 14:07 50.07300 -60.43226 37166 ft 502 kts 51°
2026-05-01 14:08 50.14120 -60.30853 37193 ft 501 kts 51°
2026-05-01 14:08 50.18658 -60.22586 37200 ft 500 kts 51°
2026-05-01 14:09 50.23176 -60.14330 37206 ft 500 kts 51°
2026-05-01 14:09 50.27705 -60.06027 37209 ft 501 kts 51°
2026-05-01 14:10 50.32188 -59.97785 37212 ft 501 kts 51°
2026-05-01 14:10 50.36701 -59.89460 37220 ft 500 kts 51°
2026-05-01 14:11 50.41196 -59.81136 37226 ft 500 kts 51°
2026-05-01 14:11 50.47932 -59.68619 37239 ft 500 kts 52°
2026-05-01 14:12 50.52413 -59.60256 37236 ft 500 kts 52°
2026-05-01 14:12 50.56890 -59.51871 37236 ft 500 kts 52°
2026-05-01 14:13 50.60606 -59.44896 37236 ft 500 kts 52°
2026-05-01 14:13 50.65790 -59.35132 37242 ft 499 kts 52°
2026-05-01 14:14 50.70244 -59.26712 37241 ft 499 kts 52°
2026-05-01 14:14 50.74689 -59.18284 37244 ft 499 kts 52°
2026-05-01 14:15 50.79124 -59.09848 37242 ft 499 kts 52°
2026-05-01 14:15 50.83555 -59.01386 37246 ft 499 kts 52°
2026-05-01 14:16 50.87982 -58.92904 37245 ft 499 kts 52°
2026-05-01 14:16 50.92399 -58.84418 37246 ft 499 kts 52°
2026-05-01 14:17 50.96811 -58.75913 37248 ft 499 kts 52°
2026-05-01 14:17 51.01219 -58.67385 37245 ft 499 kts 52°
2026-05-01 14:18 51.05622 -58.58840 37243 ft 499 kts 52°
2026-05-01 14:18 51.09273 -58.51733 37249 ft 499 kts 52°
2026-05-01 14:19 51.14376 -58.41764 37247 ft 499 kts 52°
2026-05-01 14:19 51.18755 -58.33180 37250 ft 499 kts 52°
2026-05-01 14:20 51.25322 -58.20256 37254 ft 499 kts 52°
2026-05-01 14:21 51.29689 -58.11624 37257 ft 500 kts 52°
2026-05-01 14:21 51.34056 -58.02964 37258 ft 500 kts 53°
2026-05-01 14:22 51.40602 -57.89923 37265 ft 500 kts 53°
2026-05-01 14:22 51.44932 -57.81263 37266 ft 500 kts 53°
2026-05-01 14:23 51.49280 -57.72535 37272 ft 501 kts 53°
2026-05-01 14:23 51.53624 -57.63794 37280 ft 501 kts 53°
2026-05-01 14:24 51.57961 -57.55027 37285 ft 501 kts 53°
2026-05-01 14:24 51.62290 -57.46251 37292 ft 501 kts 53°
2026-05-01 14:25 51.66626 -57.37432 37294 ft 501 kts 53°
2026-05-01 14:25 51.70941 -57.28624 37294 ft 500 kts 53°
2026-05-01 14:26 51.77391 -57.15395 37296 ft 500 kts 53°
2026-05-01 14:27 51.81682 -57.06565 37295 ft 500 kts 53°
2026-05-01 14:27 51.85966 -56.97710 37300 ft 500 kts 53°
2026-05-01 14:28 51.92382 -56.84392 37299 ft 500 kts 53°
2026-05-01 14:28 51.95924 -56.77012 37298 ft 500 kts 54°
2026-05-01 14:29 52.00192 -56.68094 37306 ft 500 kts 54°
2026-05-01 14:30 52.08697 -56.50225 37307 ft 500 kts 54°
2026-05-01 14:31 52.15063 -56.36784 37300 ft 500 kts 54°
2026-05-01 14:31 52.19298 -56.27815 37313 ft 499 kts 54°
2026-05-01 14:32 52.23526 -56.18830 37313 ft 499 kts 54°
2026-05-01 14:32 52.27748 -56.09826 37317 ft 499 kts 54°
2026-05-01 14:33 52.31955 -56.00823 37318 ft 499 kts 55°
2026-05-01 14:33 52.36159 -55.91792 37318 ft 499 kts 55°
2026-05-01 14:34 52.40034 -55.82417 37313 ft 496 kts 61°
2026-05-01 14:34 52.43318 -55.72509 37324 ft 493 kts 67°
2026-05-01 14:35 52.46398 -55.62454 37324 ft 494 kts 66°
2026-05-01 14:35 52.49512 -55.52420 37334 ft 493 kts 66°
2026-05-01 14:36 52.52600 -55.42353 37340 ft 493 kts 66°
2026-05-01 14:36 52.55663 -55.32282 37349 ft 493 kts 66°
2026-05-01 14:37 52.58715 -55.22196 37354 ft 493 kts 66°
2026-05-01 14:37 52.61758 -55.12099 37356 ft 492 kts 66°
2026-05-01 14:38 52.64790 -55.01996 37364 ft 492 kts 66°
2026-05-01 14:38 52.67811 -54.91889 37364 ft 492 kts 66°
2026-05-01 14:39 52.70822 -54.81773 37378 ft 491 kts 66°
2026-05-01 14:39 52.73823 -54.71645 37380 ft 491 kts 66°
2026-05-01 14:40 52.76814 -54.61512 37362 ft 491 kts 66°
2026-05-01 14:40 52.79794 -54.51368 37358 ft 491 kts 66°
2026-05-01 14:41 52.82766 -54.41211 37381 ft 491 kts 66°
2026-05-01 14:41 52.85727 -54.31045 37390 ft 490 kts 66°
2026-05-01 14:42 52.88680 -54.20866 37390 ft 490 kts 66°
2026-05-01 14:42 52.91622 -54.10680 37389 ft 490 kts 66°
2026-05-01 14:43 52.94558 -54.00471 37392 ft 490 kts 66°
2026-05-01 14:43 52.97482 -53.90257 37390 ft 490 kts 67°
2026-05-01 14:44 53.00397 -53.80032 37394 ft 490 kts 67°
2026-05-01 14:44 53.04752 -53.64671 37399 ft 490 kts 67°
2026-05-01 14:45 53.09065 -53.49358 37409 ft 489 kts 67°
2026-05-01 14:46 53.11941 -53.39094 37411 ft 489 kts 67°
2026-05-01 14:46 53.16235 -53.23679 37410 ft 489 kts 67°
2026-05-01 14:47 53.19105 -53.13320 37413 ft 489 kts 67°
2026-05-01 14:48 53.23345 -52.97931 37417 ft 489 kts 67°
2026-05-01 14:48 53.27582 -52.82449 37419 ft 489 kts 68°
2026-05-01 14:49 53.33220 -52.61688 37424 ft 489 kts 68°
2026-05-01 14:50 53.38800 -52.40952 37432 ft 488 kts 68°
2026-05-01 14:51 53.42964 -52.25355 37431 ft 488 kts 68°
2026-05-01 14:52 53.47100 -52.09754 37437 ft 488 kts 68°
2026-05-01 14:53 53.51319 -51.94252 37418 ft 488 kts 66°
2026-05-01 14:53 53.54227 -51.83847 37352 ft 489 kts 66°
2026-05-01 14:54 53.56974 -51.73533 37434 ft 486 kts 70°
2026-05-01 14:54 53.59440 -51.62963 37427 ft 486 kts 70°
2026-05-01 14:55 53.62041 -51.52424 37441 ft 487 kts 68°
2026-05-01 14:55 53.64738 -51.41948 37449 ft 487 kts 68°
2026-05-01 14:56 53.67428 -51.31469 37452 ft 487 kts 68°
2026-05-01 14:56 53.70104 -51.20965 37453 ft 487 kts 68°
2026-05-01 14:57 53.72766 -51.10459 37455 ft 487 kts 68°
2026-05-01 14:57 53.76743 -50.94672 37456 ft 486 kts 69°
2026-05-01 14:58 53.79382 -50.84135 37458 ft 486 kts 69°
2026-05-01 14:58 53.82008 -50.73599 37464 ft 486 kts 69°
2026-05-01 14:59 53.84624 -50.63055 37460 ft 486 kts 69°
2026-05-01 14:59 53.87231 -50.52496 37460 ft 486 kts 69°
2026-05-01 15:00 53.91120 -50.36644 37462 ft 485 kts 69°
2026-05-01 15:01 53.93702 -50.26060 37464 ft 485 kts 69°
2026-05-01 15:01 53.96277 -50.15474 37470 ft 485 kts 69°
2026-05-01 15:02 53.98838 -50.04874 37469 ft 484 kts 70°
2026-05-01 15:02 54.00885 -49.93998 37471 ft 483 kts 78°
2026-05-01 15:03 54.02412 -49.82895 37471 ft 482 kts 78°
2026-05-01 15:03 54.04004 -49.71808 37470 ft 482 kts 78°
2026-05-01 15:04 54.05591 -49.60716 37473 ft 482 kts 78°
2026-05-01 15:04 54.07160 -49.49629 37476 ft 482 kts 78°
2026-05-01 15:05 54.08715 -49.38531 37478 ft 482 kts 78°
2026-05-01 15:05 54.10255 -49.27419 37477 ft 481 kts 78°
2026-05-01 15:06 54.11781 -49.16305 37475 ft 481 kts 78°
2026-05-01 15:06 54.13295 -49.05201 37471 ft 481 kts 78°
2026-05-01 15:07 54.14800 -48.94081 37477 ft 481 kts 78°
2026-05-01 15:07 54.16294 -48.82958 37489 ft 481 kts 78°
2026-05-01 15:08 54.17776 -48.71839 37479 ft 481 kts 78°
2026-05-01 15:08 54.19248 -48.60707 37477 ft 481 kts 78°
2026-05-01 15:09 54.20710 -48.49572 37489 ft 480 kts 78°
2026-05-01 15:09 54.22160 -48.38429 37486 ft 480 kts 79°
2026-05-01 15:10 54.23600 -48.27295 37492 ft 480 kts 79°
2026-05-01 15:10 54.25500 -48.12463 37495 ft 480 kts 79°
2026-05-01 15:11 54.27617 -47.95743 37490 ft 479 kts 79°
2026-05-01 15:12 54.29015 -47.84587 37488 ft 479 kts 79°
2026-05-01 15:12 54.31093 -47.67844 37492 ft 479 kts 79°
2026-05-01 15:14 54.34511 -47.39848 37502 ft 479 kts 79°
2026-05-01 15:14 54.36515 -47.23163 37505 ft 478 kts 79°
2026-05-01 15:15 54.39162 -47.00800 37504 ft 478 kts 79°
2026-05-01 15:16 54.41765 -46.78430 37506 ft 478 kts 79°
2026-05-01 15:18 54.44958 -46.50438 37507 ft 478 kts 80°
2026-05-01 15:19 54.47467 -46.28018 37510 ft 478 kts 80°
2026-05-01 15:19 54.49320 -46.11187 37507 ft 478 kts 80°
2026-05-01 15:20 54.51150 -45.94346 37508 ft 477 kts 80°
2026-05-01 15:21 54.52357 -45.83105 37510 ft 477 kts 81°
2026-05-01 15:21 54.53555 -45.71851 37510 ft 477 kts 81°
2026-05-01 15:22 54.55330 -45.54974 37512 ft 478 kts 81°
2026-05-01 15:22 54.56502 -45.43700 37508 ft 478 kts 81°
2026-05-01 15:23 54.57663 -45.32422 37515 ft 478 kts 81°
2026-05-01 15:23 54.58815 -45.21126 37513 ft 478 kts 81°
2026-05-01 15:24 54.59956 -45.09826 37511 ft 478 kts 81°
2026-05-01 15:24 54.61087 -44.98514 37515 ft 479 kts 81°
2026-05-01 15:25 54.62208 -44.87193 37516 ft 479 kts 82°
2026-05-01 15:25 54.63318 -44.75866 37515 ft 479 kts 82°
2026-05-01 15:26 54.64418 -44.64527 37514 ft 479 kts 82°
2026-05-01 15:26 54.65509 -44.53164 37512 ft 480 kts 82°
2026-05-01 15:27 54.66590 -44.41793 37514 ft 480 kts 82°
2026-05-01 15:28 54.68193 -44.24705 37516 ft 480 kts 82°
2026-05-01 15:28 54.69248 -44.13305 37518 ft 481 kts 83°
2026-05-01 15:29 54.70813 -43.96180 37512 ft 481 kts 83°
2026-05-01 15:30 54.72865 -43.73283 37513 ft 482 kts 83°
2026-05-01 15:31 54.75867 -43.38829 37512 ft 483 kts 83°
2026-05-01 15:32 54.77818 -43.15785 37513 ft 484 kts 84°
2026-05-01 15:34 54.80673 -42.81049 37514 ft 486 kts 84°